This is the latest recevied weather packets stored in our database for station/object KB1FPD. If no packets are shown the sender has not sent any weather packets the latest 10 day(s).
| Time | Temp. | Humidity | Pressure | Rain* | Wind** | Luminosity | Snow |
|---|---|---|---|---|---|---|---|
| 1777897721 | 10° C | 59% | 1014.3 hPa | 0 mm | - | - | - |
| 1777897423 | 10° C | 61% | 1014.2 hPa | 0 mm | - | - | - |
| 1777897122 | 10° C | 60% | 1014.3 hPa | 0 mm | - | - | - |
| 1777896820 | 10° C | 61% | 1014.2 hPa | 0 mm | - | - | - |
| 1777896519 | 9.44° C | 63% | 1014.2 hPa | 0 mm | - | - | - |
| 1777896219 | 9.44° C | 64% | 1014.3 hPa | 0 mm | - | - | - |
| 1777895919 | 8.89° C | 64% | 1014.3 hPa | 0 mm | - | - | - |
| 1777895619 | 8.89° C | 61% | 1014.2 hPa | 0 mm | - | - | - |
| 1777895318 | 8.89° C | 58% | 1014.2 hPa | 0 mm | - | - | - |
| 1777895018 | 8.89° C | 60% | 1014.3 hPa | 0 mm | - | - | - |
| 1777894718 | 8.89° C | 62% | 1014.4 hPa | 0 mm | - | - | - |
| 1777894417 | 8.89° C | 60% | 1014.4 hPa | 0 mm | - | - | - |
| 1777894118 | 8.89° C | 62% | 1014.4 hPa | 0 mm | - | - | - |
| 1777893820 | 8.33° C | 63% | 1014.4 hPa | 0 mm | - | - | - |
| 1777893517 | 8.33° C | 64% | 1014.4 hPa | 0 mm | - | - | - |
| 1777893218 | 8.33° C | 62% | 1014.5 hPa | 0 mm | - | - | - |
| 1777892918 | 7.78° C | 61% | 1014.5 hPa | 0 mm | - | - | - |
| 1777892616 | 7.78° C | 61% | 1014.5 hPa | 0 mm | - | - | - |
| 1777892317 | 8.33° C | 64% | 1014.5 hPa | 0 mm | - | - | - |
| 1777892014 | 8.33° C | 59% | 1014.5 hPa | 0 mm | - | - | - |
| 1777891715 | 8.33° C | 60% | 1014.4 hPa | 0 mm | - | - | - |
| 1777891414 | 8.33° C | 61% | 1014.3 hPa | 0 mm | - | - | - |
| 1777891113 | 8.33° C | 63% | 1014.5 hPa | 0 mm | - | - | - |
| 1777890811 | 8.33° C | 62% | 1014.4 hPa | 0 mm | - | - | - |
| 1777890509 | 8.33° C | 61% | 1014.4 hPa | 0 mm | - | - | - |
* Rain latest hour (hover to see other rain measurements)
** Current wind speed in m/s (hover to see current wind gust speed)